BOX519 EDDF-EKCH

Flight info

Callsign BOX519
Flight time 1h 3m
Altitude 31000
Route MARUN7F/25C MARUN Y150 TOLGI DCT SAS DCT MAKEL N851 GESKA Z711 MONAK
Aircraft B77L/H-SDE1E2E3FGHIJ2J3J4J5M1RWXY/LB1D1

Departure

Time 2026-05-04 18:02
Airport Frankfurt Main Airport (EDDF)

Arrival

Time 2026-05-04 19:05
Airport Copenhagen Kastrup Airport (EKCH)
Time Latitude Longitude Altitude Speed Heading
2026-05-04 17:25 50.03716 8.53096 357 ft 0 kts 339°
2026-05-04 17:52 50.03712 8.53098 357 ft 3 kts 339°
2026-05-04 17:52 50.03690 8.53111 356 ft 3 kts 339°
2026-05-04 17:53 50.03670 8.53122 356 ft 3 kts 336°
2026-05-04 17:53 50.03653 8.53141 356 ft 3 kts 300°
2026-05-04 17:53 50.03645 8.53174 356 ft 3 kts 272°
2026-05-04 17:53 50.03646 8.53210 356 ft 3 kts 259°
2026-05-04 17:54 50.03652 8.53245 356 ft 3 kts 251°
2026-05-04 17:54 50.03654 8.53255 356 ft 1 kts 249°
2026-05-04 17:58 50.03653 8.53253 345 ft 1 kts 249°
2026-05-04 17:58 50.03647 8.53227 357 ft 4 kts 250°
2026-05-04 17:58 50.03636 8.53183 350 ft 5 kts 250°
2026-05-04 17:58 50.03623 8.53128 351 ft 6 kts 250°
2026-05-04 17:59 50.03610 8.53075 349 ft 5 kts 243°
2026-05-04 17:59 50.03579 8.53054 351 ft 6 kts 171°
2026-05-04 17:59 50.03498 8.52983 351 ft 9 kts 247°
2026-05-04 18:00 50.03470 8.52877 339 ft 13 kts 248°
2026-05-04 18:00 50.03432 8.52730 335 ft 14 kts 248°
2026-05-04 18:00 50.03399 8.52613 335 ft 8 kts 234°
2026-05-04 18:00 50.03343 8.52593 338 ft 9 kts 180°
2026-05-04 18:01 50.03157 8.52593 335 ft 53 kts 179°
2026-05-04 18:01 50.02544 8.52602 335 ft 121 kts 180°
2026-05-04 18:01 50.01507 8.52610 337 ft 174 kts 180°
2026-05-04 18:02 49.98921 8.52659 1236 ft 191 kts 181°
2026-05-04 18:02 49.97622 8.52328 1718 ft 196 kts 206°
2026-05-04 18:02 49.96529 8.51029 2076 ft 207 kts 229°
2026-05-04 18:02 49.95514 8.49280 2421 ft 223 kts 227°
2026-05-04 18:03 49.94422 8.47522 2997 ft 231 kts 226°
2026-05-04 18:03 49.93287 8.45746 3706 ft 232 kts 225°
2026-05-04 18:03 49.92101 8.43900 4105 ft 252 kts 224°
2026-05-04 18:03 49.90832 8.41970 4724 ft 260 kts 223°
2026-05-04 18:04 49.89513 8.39987 5435 ft 266 kts 223°
2026-05-04 18:04 49.88210 8.37972 6320 ft 262 kts 229°
2026-05-04 18:04 49.87439 8.32484 7611 ft 278 kts 282°
2026-05-04 18:05 49.88268 8.29764 8407 ft 284 kts 305°
2026-05-04 18:05 49.89777 8.27742 9149 ft 293 kts 331°
2026-05-04 18:05 49.91756 8.26922 9842 ft 302 kts 357°
2026-05-04 18:05 49.93864 8.27321 10325 ft 311 kts 11°
2026-05-04 18:06 49.98393 8.29010 10722 ft 359 kts 13°
2026-05-04 18:06 50.00867 8.29974 10935 ft 382 kts 13°
2026-05-04 18:06 50.03488 8.30985 11529 ft 393 kts 13°
2026-05-04 18:07 50.06209 8.32017 12324 ft 400 kts 12°
2026-05-04 18:07 50.08927 8.33035 13263 ft 404 kts 12°
2026-05-04 18:07 50.11638 8.34043 14117 ft 408 kts 12°
2026-05-04 18:07 50.14415 8.35069 14897 ft 413 kts 12°
2026-05-04 18:08 50.17234 8.36079 15683 ft 418 kts 10°
2026-05-04 18:08 50.20096 8.36984 16443 ft 423 kts 10°
2026-05-04 18:08 50.22979 8.37988 17195 ft 428 kts 12°
2026-05-04 18:08 50.25891 8.39143 17945 ft 433 kts 13°
2026-05-04 18:09 50.31722 8.41864 19285 ft 443 kts 18°
2026-05-04 18:09 50.37552 8.45221 20640 ft 450 kts 22°
2026-05-04 18:10 50.40347 8.47514 21258 ft 455 kts 30°
2026-05-04 18:10 50.43065 8.50126 21870 ft 460 kts 31°
2026-05-04 18:10 50.45797 8.52795 22477 ft 465 kts 31°
2026-05-04 18:10 50.48549 8.55485 23108 ft 468 kts 31°
2026-05-04 18:11 50.51334 8.58196 23746 ft 471 kts 31°
2026-05-04 18:11 50.54129 8.60901 24328 ft 473 kts 31°
2026-05-04 18:11 50.56927 8.63598 24929 ft 475 kts 30°
2026-05-04 18:11 50.59767 8.66332 25529 ft 476 kts 30°
2026-05-04 18:12 50.62599 8.69057 26119 ft 477 kts 30°
2026-05-04 18:12 50.65443 8.71795 26655 ft 481 kts 30°
2026-05-04 18:12 50.68269 8.74519 27162 ft 485 kts 30°
2026-05-04 18:12 50.71161 8.77312 27570 ft 491 kts 30°
2026-05-04 18:13 50.74094 8.80149 27839 ft 499 kts 30°
2026-05-04 18:13 50.77098 8.83058 27933 ft 511 kts 30°
2026-05-04 18:13 50.83225 8.89011 27960 ft 516 kts 30°
2026-05-04 18:14 50.86271 8.91970 27961 ft 512 kts 29°
2026-05-04 18:14 50.92656 8.97030 28503 ft 515 kts 22°
2026-05-04 18:15 50.99180 9.01664 29785 ft 513 kts 21°
2026-05-04 18:15 51.05692 9.06343 30608 ft 517 kts 22°
2026-05-04 18:15 51.08948 9.08716 30850 ft 522 kts 22°
2026-05-04 18:16 51.12263 9.11152 30886 ft 530 kts 22°
2026-05-04 18:16 51.18931 9.16093 31001 ft 525 kts 22°
2026-05-04 18:17 51.28844 9.23468 30963 ft 521 kts 22°
2026-05-04 18:18 51.38688 9.30809 30972 ft 520 kts 22°
2026-05-04 18:18 51.45140 9.35643 30980 ft 504 kts 22°
2026-05-04 18:19 51.54650 9.42789 31001 ft 503 kts 22°
2026-05-04 18:19 51.60977 9.47560 30985 ft 503 kts 22°
2026-05-04 18:20 51.67318 9.52359 31001 ft 503 kts 22°
2026-05-04 18:20 51.73619 9.57142 30992 ft 504 kts 22°
2026-05-04 18:21 51.79972 9.61982 30973 ft 505 kts 22°
2026-05-04 18:21 51.86316 9.66829 30980 ft 505 kts 22°
2026-05-04 18:22 51.92669 9.71697 30983 ft 505 kts 22°
2026-05-04 18:22 51.99021 9.76581 30976 ft 505 kts 22°
2026-05-04 18:23 52.05373 9.81480 30977 ft 505 kts 22°
2026-05-04 18:23 52.11732 9.86399 30981 ft 506 kts 22°
2026-05-04 18:24 52.18078 9.91327 30967 ft 505 kts 22°
2026-05-04 18:24 52.24412 9.96259 30967 ft 504 kts 22°
2026-05-04 18:25 52.30736 10.01199 30966 ft 504 kts 22°
2026-05-04 18:25 52.37054 10.06149 30954 ft 504 kts 22°
2026-05-04 18:26 52.43348 10.11096 30946 ft 505 kts 22°
2026-05-04 18:26 52.49684 10.16093 30941 ft 505 kts 22°
2026-05-04 18:27 52.56024 10.21109 30940 ft 506 kts 22°
2026-05-04 18:27 52.62368 10.26144 30949 ft 507 kts 22°
2026-05-04 18:28 52.68728 10.31208 30946 ft 508 kts 22°
2026-05-04 18:28 52.75090 10.36289 30949 ft 508 kts 22°
2026-05-04 18:29 52.81455 10.41394 30957 ft 508 kts 22°
2026-05-04 18:29 52.87826 10.46517 30935 ft 508 kts 22°
2026-05-04 18:30 52.97357 10.54212 30944 ft 508 kts 22°
2026-05-04 18:31 53.03702 10.59356 30967 ft 508 kts 22°
2026-05-04 18:31 53.10048 10.64518 30945 ft 508 kts 22°
2026-05-04 18:32 53.16400 10.69703 30949 ft 507 kts 22°
2026-05-04 18:32 53.22733 10.74889 30950 ft 507 kts 22°
2026-05-04 18:33 53.29071 10.80096 30964 ft 507 kts 22°
2026-05-04 18:33 53.35361 10.85280 30936 ft 507 kts 22°
2026-05-04 18:34 53.41679 10.90505 30949 ft 507 kts 22°
2026-05-04 18:34 53.48007 10.95756 30958 ft 507 kts 22°
2026-05-04 18:35 53.54328 11.01019 30971 ft 507 kts 22°
2026-05-04 18:35 53.60638 11.06291 30962 ft 506 kts 22°
2026-05-04 18:36 53.66933 11.11568 30965 ft 505 kts 22°
2026-05-04 18:36 53.73226 11.16860 30987 ft 505 kts 22°
2026-05-04 18:37 53.79515 11.22165 30971 ft 505 kts 21°
2026-05-04 18:37 53.85798 11.27485 30779 ft 505 kts 22°
2026-05-04 18:37 53.88932 11.30146 30390 ft 503 kts 22°
2026-05-04 18:38 53.92050 11.32795 29885 ft 503 kts 22°
2026-05-04 18:38 53.95192 11.35467 29371 ft 502 kts 22°
2026-05-04 18:38 53.98303 11.38124 29029 ft 499 kts 21°
2026-05-04 18:38 54.01375 11.40796 28569 ft 494 kts 23°
2026-05-04 18:39 54.04368 11.43628 28227 ft 488 kts 25°
2026-05-04 18:39 54.07268 11.46517 28084 ft 479 kts 26°
2026-05-04 18:39 54.10109 11.49396 27763 ft 472 kts 26°
2026-05-04 18:39 54.12892 11.52215 27260 ft 469 kts 26°
2026-05-04 18:40 54.15689 11.55032 26781 ft 465 kts 25°
2026-05-04 18:40 54.18470 11.57816 26304 ft 461 kts 25°
2026-05-04 18:40 54.21242 11.60581 25867 ft 458 kts 24°
2026-05-04 18:40 54.23978 11.63306 25401 ft 454 kts 24°
2026-05-04 18:41 54.26700 11.66016 24949 ft 451 kts 24°
2026-05-04 18:41 54.29402 11.68709 24503 ft 448 kts 24°
2026-05-04 18:41 54.32089 11.71391 24069 ft 445 kts 24°
2026-05-04 18:41 54.34753 11.74056 23613 ft 442 kts 24°
2026-05-04 18:42 54.37410 11.76718 23112 ft 440 kts 24°
2026-05-04 18:42 54.40039 11.79356 22632 ft 436 kts 25°
2026-05-04 18:42 54.42643 11.81974 22191 ft 432 kts 25°
2026-05-04 18:42 54.45225 11.84574 21769 ft 428 kts 25°
2026-05-04 18:43 54.47787 11.87159 21330 ft 424 kts 25°
2026-05-04 18:43 54.49469 11.88857 21031 ft 422 kts 25°
2026-05-04 18:43 54.51986 11.91401 20629 ft 418 kts 25°
2026-05-04 18:43 54.54489 11.93934 20213 ft 415 kts 26°
2026-05-04 18:44 54.57773 11.97263 19670 ft 411 kts 26°
2026-05-04 18:44 54.58601 11.98104 19527 ft 410 kts 26°
2026-05-04 18:44 54.62655 12.02224 18851 ft 405 kts 26°
2026-05-04 18:44 54.64289 12.03888 18579 ft 403 kts 27°
2026-05-04 18:45 54.66696 12.06341 18184 ft 400 kts 27°
2026-05-04 18:45 54.69085 12.08779 17717 ft 397 kts 27°
2026-05-04 18:45 54.71458 12.11207 17271 ft 394 kts 27°
2026-05-04 18:45 54.73802 12.13607 16855 ft 390 kts 27°
2026-05-04 18:46 54.76097 12.15961 16442 ft 386 kts 27°
2026-05-04 18:46 54.78398 12.18323 16051 ft 382 kts 27°
2026-05-04 18:46 54.80673 12.20661 15651 ft 379 kts 27°
2026-05-04 18:46 54.82930 12.22985 15267 ft 375 kts 27°
2026-05-04 18:47 54.85158 12.25281 14874 ft 372 kts 27°
2026-05-04 18:47 54.87374 12.27567 14491 ft 368 kts 27°
2026-05-04 18:47 54.89566 12.29831 14112 ft 365 kts 27°
2026-05-04 18:47 54.91741 12.32082 13738 ft 362 kts 27°
2026-05-04 18:48 54.93904 12.34322 13301 ft 359 kts 27°
2026-05-04 18:48 54.96045 12.36542 12908 ft 356 kts 27°
2026-05-04 18:48 54.98159 12.38738 12522 ft 352 kts 27°
2026-05-04 18:48 55.00247 12.40909 12145 ft 348 kts 27°
2026-05-04 18:49 55.02323 12.43071 11776 ft 345 kts 27°
2026-05-04 18:49 55.04347 12.45180 11422 ft 341 kts 27°
2026-05-04 18:49 55.06370 12.47290 11064 ft 337 kts 27°
2026-05-04 18:49 55.08378 12.49388 10714 ft 334 kts 27°
2026-05-04 18:50 55.10353 12.51454 10464 ft 326 kts 27°
2026-05-04 18:50 55.12264 12.53459 10321 ft 316 kts 27°
2026-05-04 18:50 55.14115 12.55401 10186 ft 306 kts 27°
2026-05-04 18:50 55.15917 12.57292 9939 ft 299 kts 27°
2026-05-04 18:51 55.17698 12.59158 9558 ft 297 kts 27°
2026-05-04 18:51 55.19465 12.61014 9117 ft 298 kts 27°
2026-05-04 18:51 55.21238 12.62880 9024 ft 297 kts 27°
2026-05-04 18:51 55.23021 12.64746 9026 ft 300 kts 25°
2026-05-04 18:52 55.24916 12.66205 8871 ft 298 kts 14°
2026-05-04 18:52 55.26901 12.67271 8520 ft 299 kts 12°
2026-05-04 18:52 55.28870 12.68274 8146 ft 297 kts 12°
2026-05-04 18:52 55.30843 12.69328 7740 ft 295 kts 13°
2026-05-04 18:53 55.32795 12.70415 7364 ft 293 kts 14°
2026-05-04 18:53 55.34727 12.71508 6991 ft 291 kts 14°
2026-05-04 18:53 55.36641 12.72601 6603 ft 288 kts 14°
2026-05-04 18:53 55.38542 12.73689 6239 ft 286 kts 14°
2026-05-04 18:54 55.40427 12.74768 5850 ft 284 kts 14°
2026-05-04 18:54 55.42302 12.75842 5474 ft 281 kts 14°
2026-05-04 18:54 55.44142 12.76964 5083 ft 279 kts 20°
2026-05-04 18:54 55.45874 12.78466 4773 ft 275 kts 25°
2026-05-04 18:55 55.47534 12.80074 4511 ft 270 kts 26°
2026-05-04 18:55 55.50813 12.83247 4081 ft 264 kts 26°
2026-05-04 18:55 55.52420 12.84778 4037 ft 262 kts 25°
2026-05-04 18:56 55.54036 12.86305 4017 ft 266 kts 25°
2026-05-04 18:56 55.55682 12.87852 4013 ft 269 kts 25°
2026-05-04 18:56 55.57333 12.89400 4008 ft 269 kts 25°
2026-05-04 18:56 55.58985 12.90947 3997 ft 268 kts 25°
2026-05-04 18:57 55.60612 12.92470 3981 ft 260 kts 25°
2026-05-04 18:57 55.62176 12.93936 3993 ft 249 kts 25°
2026-05-04 18:57 55.63694 12.95358 3870 ft 247 kts 24°
2026-05-04 18:57 55.65226 12.96789 3624 ft 249 kts 24°
2026-05-04 18:58 55.66741 12.98207 3362 ft 244 kts 24°
2026-05-04 18:58 55.68227 12.99600 3119 ft 237 kts 25°
2026-05-04 18:58 55.69656 13.00943 3059 ft 227 kts 24°
2026-05-04 18:58 55.71038 13.01795 3027 ft 204 kts 357°
2026-05-04 18:59 55.72372 13.01161 3011 ft 199 kts 324°
2026-05-04 18:59 55.73434 12.99618 3022 ft 198 kts 316°
2026-05-04 18:59 55.74435 12.97950 3017 ft 198 kts 315°
2026-05-04 18:59 55.75432 12.96257 3015 ft 196 kts 311°
2026-05-04 19:00 55.76043 12.94171 3009 ft 192 kts 277°
2026-05-04 19:00 55.75853 12.91848 3031 ft 193 kts 255°
2026-05-04 19:00 55.75440 12.89537 3033 ft 201 kts 255°
2026-05-04 19:00 55.75000 12.87168 3022 ft 201 kts 248°
2026-05-04 19:01 55.74164 12.85205 3025 ft 197 kts 230°
2026-05-04 19:01 55.73231 12.83474 2880 ft 193 kts 228°
2026-05-04 19:01 55.72262 12.81879 2593 ft 186 kts 226°
2026-05-04 19:01 55.71307 12.80381 2354 ft 182 kts 226°
2026-05-04 19:02 55.70351 12.78891 2120 ft 183 kts 225°
2026-05-04 19:02 55.69397 12.77406 1864 ft 182 kts 226°
2026-05-04 19:02 55.68464 12.75958 1592 ft 172 kts 225°
2026-05-04 19:02 55.67604 12.74622 1404 ft 159 kts 225°
2026-05-04 19:03 55.66798 12.73369 1180 ft 152 kts 225°
2026-05-04 19:03 55.66004 12.72148 986 ft 154 kts 225°
2026-05-04 19:03 55.65196 12.70866 841 ft 158 kts 225°
2026-05-04 19:03 55.64366 12.69581 588 ft 158 kts 223°
2026-05-04 19:04 55.63526 12.68323 293 ft 157 kts 222°
2026-05-04 19:04 55.62720 12.67049 115 ft 159 kts 224°
2026-05-04 19:04 55.61849 12.65676 30 ft 139 kts 221°
2026-05-04 19:04 55.61393 12.64971 29 ft 66 kts 223°
2026-05-04 19:05 55.61230 12.64497 28 ft 38 kts 253°
2026-05-04 19:05 55.61192 12.64216 28 ft 17 kts 276°
2026-05-04 19:05 55.61282 12.64124 28 ft 17 kts 18°
2026-05-04 19:05 55.61386 12.64231 28 ft 17 kts 32°
2026-05-04 19:06 55.61487 12.64346 28 ft 17 kts 33°
2026-05-04 19:06 55.61594 12.64468 28 ft 19 kts 33°
2026-05-04 19:06 55.61703 12.64594 28 ft 19 kts 33°
2026-05-04 19:06 55.61812 12.64721 28 ft 19 kts 33°
2026-05-04 19:07 55.61882 12.64800 28 ft 9 kts 32°
2026-05-04 19:07 55.61925 12.64850 28 ft 6 kts 33°
2026-05-04 19:07 55.61931 12.64856 28 ft 0 kts 33°
2026-05-04 19:08 55.61932 12.64857 28 ft 1 kts 33°
2026-05-04 19:08 55.61974 12.64907 28 ft 12 kts 33°
2026-05-04 19:09 55.62014 12.64967 28 ft 7 kts 66°
2026-05-04 19:09 55.61991 12.65074 27 ft 12 kts 122°
2026-05-04 19:09 55.61945 12.65197 27 ft 12 kts 125°
2026-05-04 19:09 55.61900 12.65320 26 ft 9 kts 126°
2026-05-04 19:10 55.61885 12.65358 31 ft 0 kts 126°
2026-05-04 19:11 55.61827 12.65509 28 ft 26 kts 123°
2026-05-04 19:11 55.61725 12.65784 31 ft 27 kts 123°
2026-05-04 19:11 55.61624 12.66056 30 ft 27 kts 123°
2026-05-04 19:12 55.61521 12.66331 28 ft 27 kts 123°
2026-05-04 19:12 55.61327 12.66856 29 ft 15 kts 123°
2026-05-04 19:12 55.61285 12.66969 30 ft 7 kts 123°
2026-05-04 19:13 55.61282 12.67044 30 ft 7 kts 59°
2026-05-04 19:13 55.61327 12.67108 29 ft 10 kts 29°
2026-05-04 19:13 55.61400 12.67130 28 ft 11 kts 356°
2026-05-04 19:13 55.61481 12.67107 28 ft 14 kts 348°
2026-05-04 19:14 55.61604 12.67063 28 ft 22 kts 348°
2026-05-04 19:14 55.61756 12.67012 28 ft 22 kts 349°
2026-05-04 19:14 55.61860 12.66978 28 ft 3 kts 348°
2026-05-04 19:14 55.61877 12.66972 28 ft 3 kts 348°
2026-05-04 19:15 55.61899 12.66963 28 ft 4 kts 347°
2026-05-04 19:15 55.61923 12.66959 28 ft 3 kts 10°
2026-05-04 19:15 55.61941 12.67007 28 ft 7 kts 69°
2026-05-04 19:15 55.61949 12.67054 28 ft 3 kts 76°
2026-05-04 19:16 55.61952 12.67078 28 ft 2 kts 77°
2026-05-04 19:16 55.61953 12.67089 28 ft 0 kts 78°